Weather History for Marathon, FL

Change the Weather History Date:

Sunday, October 28, 2012

  Actual Average Record
Temperature  
Mean Temperature 78 °F 78 °F  
Max Temperature 82 °F 83 °F 89 °F (2002)
Min Temperature 74 °F 74 °F 61 °F (2008)
Degree Days  
Heating Degree Days 0 0  
Month to date heating degree days 0 0  
Since 1 July heating degree days 0 0  
Cooling Degree Days 13 13  
Month to date cooling degree days 494 446  
Year to date cooling degree days 4737 4400  
Growing Degree Days 28 (Base 50)    
Moisture  
Dew Point 63 °F    
Average Humidity 64    
Maximum Humidity 74    
Minimum Humidity 54    
Precipitation  
Precipitation 0.00 in 0.15 in 0.46 in (2010)
Month to date precipitation 3.67 4.39  
Year to date precipitation 43.80 40.94  
Snow  
Snow 0.00 in - - ()
Month to date snowfall 0.0  
Since 1 July snowfall 0.0  
Since 1 September snowfall 0.0  
Snow Depth 0.00 in    
Sea Level Pressure  
Sea Level Pressure 29.78 in    
Wind  
Wind Speed 14 mph (WNW)    
Max Wind Speed 21 mph    
Max Gust Speed 30 mph    
Visibility 10 miles    
Events      
T = Trace of Precipitation, MM = Missing Value Source: NWS Daily Summary

Daily Weather History Graph

Daily Weather History Graph

Search for Another Location

Airport:

Trip Planner

Search our weather history database for the weather conditions in past years. The results will help you decide how hot, cold, wet, or windy it might be!

Date:

Astronomy

Oct. 28, 2012 Rise Set
Actual Time 7:29 AM EDT 6:46 PM EDT
Civil Twilight 7:05 AM EDT 7:09 PM EDT
Nautical Twilight 6:38 AM EDT 7:36 PM EDT
Astronomical Twilight 6:12 AM EDT 8:03 PM EDT
Moon 6:02 PM EDT (10/28) 6:23 AM EDT (10/28)
Length of Visible Light 12h 03m
Length of Day
11h 17m
Waxing Gibbous, 99% of the Moon is Illuminated
Oct 28
Waxing Gibbous
Oct 29
Full
Nov 6
Last Quarter
Nov 13
New
Nov 20
First Quarter

Hourly Weather History & Observations

Time (EDT) Temp. Heat Index Dew Point Humidity Pressure Visibility Wind Dir Wind Speed Gust Speed Precip Events Conditions
12:53 AM 77.0 °F - 64.0 °F 64% 29.76 in 10.0 mi NW 12.7 mph 23.0 mph N/A   Clear
1:53 AM 77.0 °F - 64.9 °F 66% 29.75 in 10.0 mi NW 11.5 mph 24.2 mph N/A   Partly Cloudy
2:53 AM 75.9 °F - 64.9 °F 69% 29.75 in 10.0 mi NW 10.4 mph 21.9 mph N/A   Partly Cloudy
3:53 AM 75.9 °F - 64.0 °F 67% 29.74 in 10.0 mi WNW 12.7 mph 21.9 mph N/A   Clear
4:53 AM 75.9 °F - 64.0 °F 67% 29.75 in 10.0 mi WNW 10.4 mph - N/A   Clear
5:53 AM 75.9 °F - 64.9 °F 69% 29.75 in 10.0 mi NW 10.4 mph - N/A   Partly Cloudy
6:53 AM 75.9 °F - 66.0 °F 71% 29.76 in 10.0 mi WNW 12.7 mph 20.7 mph N/A   Clear
7:53 AM 75.9 °F - 66.0 °F 71% 29.78 in 10.0 mi WNW 11.5 mph 19.6 mph N/A   Clear
8:53 AM 78.1 °F - 66.0 °F 66% 29.79 in 10.0 mi NW 12.7 mph - N/A   Clear
9:53 AM 81.0 °F 83.3 °F 66.9 °F 62% 29.80 in 10.0 mi WNW 11.5 mph - N/A   Scattered Clouds
11:53 AM 81.0 °F 83.0 °F 66.0 °F 60% 29.81 in 10.0 mi NW 12.7 mph 23.0 mph N/A   Clear
1:53 PM 82.0 °F 83.8 °F 64.9 °F 56% 29.77 in 10.0 mi WNW 17.3 mph 25.3 mph N/A   Clear
2:53 PM 81.0 °F 82.5 °F 64.0 °F 56% 29.76 in 10.0 mi WNW 15.0 mph 26.5 mph N/A   Clear
3:53 PM 81.0 °F 82.2 °F 63.0 °F 54% 29.75 in 10.0 mi WNW 15.0 mph 25.3 mph N/A   Clear
4:53 PM 79.0 °F - 62.1 °F 56% 29.75 in 10.0 mi WNW 20.7 mph 27.6 mph N/A   Partly Cloudy
5:53 PM 77.0 °F - 63.0 °F 62% 29.77 in 10.0 mi WNW 13.8 mph 23.0 mph N/A   Scattered Clouds
6:53 PM 75.9 °F - 61.0 °F 60% 29.78 in 10.0 mi WNW 13.8 mph 25.3 mph N/A   Scattered Clouds
7:53 PM 75.9 °F - 60.1 °F 58% 29.78 in 10.0 mi WNW 13.8 mph 25.3 mph N/A   Scattered Clouds
8:53 PM 75.0 °F - 57.0 °F 53% 29.81 in 10.0 mi WNW 18.4 mph 28.8 mph N/A   Scattered Clouds
9:53 PM 75.0 °F - 57.9 °F 55% 29.82 in 10.0 mi WNW 17.3 mph 26.5 mph N/A   Clear
10:53 PM 75.0 °F - 57.0 °F 53% 29.82 in 10.0 mi WNW 17.3 mph 25.3 mph N/A   Partly Cloudy
11:53 PM 73.9 °F - 57.9 °F 57% 29.82 in 10.0 mi WNW 15.0 mph 28.8 mph N/A   Scattered Clouds